Find Starlink 31349

NORAD ID: 59317 Int'l Des: 2024-056 Owner: SPXS Country: US Constellation: starlink operational
LEOCIRCULAR

Current View

Loading 3D Globe...

About Starlink 31349

Starlink 31349 (NORAD 59317) is a starlink constellation satellite (v2 mini) launched Mar 24, 2024 by SPXS of US. It operates in LEO, CIRCULAR orbit with a mass of 730.00 kg.

Upcoming Passes

Passes for default location (London). Set your location on the main map for personalized predictions.

Altitude History

Loading altitude history...

Two-Line Element Set

1 59317U 24056X 26264.25038539 .00000642 00000-0 32854-4 0 9995
2 59317 43.0007 206.2109 0001259 268.8205 91.2503 15.27578817141130
Epoch: Sep 21, 2026 • Age: 11 hours

Current Status

Altitude 488.6 km
Apogee / Perigee N/A
Velocity 7.62 km/s
Sub-Earth Point -24.94°S, 79.08°W
Launch Date Mar 24, 2024
Age 2.4 years
Type internet

Technical Details

Classification Payload
Mass 730.00 kg
Dry Mass 700.00 kg
Length 0.30 m
Span 29.00 m
Shape ? Box + pan
Manufacturer SPXS
Bus Type Starlink V2M
Phase Status In Orbit
Owner/State SPXS/US

Most Searched